Flag for United Kingdom Weather past 2 weeks in Oldham, England, United Kingdom

Now
54 °F

Partly sunny.


Feels Like: 50 °F
Forecast: 44 / 58 °F
Wind: 10 mph from Northwest

Location: Manchester Airport

Current Time: May 25, 2015 at 3:52:00 PM

Latest Report: May 25, 2015 at 3:20 PM


Visibility: N/A

Pressure: 30.12 "Hg

Humidity: 77%

Dew point: 46 °F

Location of OldhamLocation

Historic Weather in Oldham — Graph

°F

Oldham temperature yesterday

Maximum temperature yesterday: 55 °F (at 1:20 PM)
Minimum temperature yesterday: 46 °F (at 12:20 AM)
Average temperature yesterday: 52 °F

Past Weeks' High & Low Weather Summary

 TemperatureHumidityPressure
High66 °F (May 11, 2:20 PM)100% (May 18, 4:50 AM)30.30 "Hg (May 18, 4:50 AM)
Low41 °F (May 19, 1:50 AM)37% (May 11, 2:20 PM)29.45 "Hg (May 19, 2:20 AM)
Average52 °F76%30.04 "Hg
* Reported May 10 2:20 PM — May 25 2:50 PM, Oldham, Weather by CustomWeather, © 2015

Note: Actual official high and low records may vary slightly from our data, if they occured in-between our weather recording intervals... More about our weather records

Advertising

Oldham weather history for previous 24 hours

 ConditionsComfort  
Time TempWeatherWind HumidityBarometerVisibility
2:50 PM
Mon, May 25
54 °FBroken clouds.8 mph77%30.12 "HgN/A
2:20 PM52 °FBroken clouds.12 mph82%30.12 "HgN/A
1:50 PM54 °FBroken clouds.10 mph72%30.09 "HgN/A
1:20 PM54 °FBroken clouds.12 mph72%30.09 "HgN/A
12:50 PM54 °FBroken clouds.8 mph72%30.12 "HgN/A
12:20 PM52 °FBroken clouds.10 mph77%30.12 "HgN/A
11:50 AM54 °FBroken clouds.12 mph72%30.12 "HgN/A
11:20 AM54 °FBroken clouds.9 mph72%30.09 "HgN/A
10:50 AM54 °FBroken clouds.10 mph72%30.09 "HgN/A
10:20 AM54 °FBroken clouds.10 mph72%30.09 "HgN/A
9:50 AM52 °FBroken clouds.10 mph77%30.09 "HgN/A
9:20 AM52 °FBroken clouds.10 mph77%30.09 "HgN/A
8:50 AM52 °FScattered clouds.10 mph77%30.09 "HgN/A
8:20 AM50 °FPassing clouds.10 mph82%30.09 "HgN/A
7:50 AM50 °FPassing clouds.10 mph82%30.09 "HgN/A
7:20 AM50 °FPassing clouds.9 mph82%30.09 "HgN/A
6:50 AM50 °FPassing clouds.5 mph82%30.09 "HgN/A
6:20 AM50 °FScattered clouds.5 mph82%30.09 "HgN/A
5:50 AM50 °FPassing clouds.6 mph82%30.09 "HgN/A
5:20 AM48 °FPassing clouds.5 mph94%30.09 "HgN/A
4:50 AM48 °FPartly cloudy.5 mph94%30.09 "HgN/A
4:20 AM48 °FPartly cloudy.2 mph94%30.09 "HgN/A
3:50 AM48 °FPassing clouds.No wind94%30.09 "HgN/A
3:20 AM48 °FPassing clouds.5 mph94%30.09 "HgN/A
2:50 AM48 °FPassing clouds.2 mph94%30.09 "HgN/A
2:20 AM48 °FMostly cloudy.2 mph94%30.09 "HgN/A
1:50 AM48 °FOvercast.3 mph94%30.12 "HgN/A
1:20 AM48 °FPassing clouds.3 mph87%30.12 "HgN/A
12:50 AM48 °FPartly cloudy.2 mph87%30.12 "HgN/A
12:20 AM50 °FPassing clouds.3 mph82%30.12 "HgN/A
11:50 PM
Sun, May 24
50 °FOvercast.3 mph88%30.12 "HgN/A
11:20 PM50 °FOvercast.3 mph88%30.12 "HgN/A
10:20 PM50 °FMostly cloudy.5 mph82%30.12 "HgN/A
9:50 PM52 °FPartly sunny.8 mph77%30.12 "HgN/A
9:20 PM52 °FPartly sunny.8 mph77%30.12 "HgN/A
8:50 PM52 °FScattered clouds.8 mph72%30.12 "HgN/A
8:20 PM52 °FScattered clouds.9 mph72%30.12 "HgN/A
7:50 PM52 °FPartly sunny.8 mph67%30.12 "HgN/A
7:20 PM52 °FPartly sunny.10 mph67%30.12 "HgN/A
6:50 PM54 °FPartly sunny.14 mph67%30.12 "HgN/A
6:20 PM54 °FPartly sunny.14 mph67%30.12 "HgN/A
5:50 PM54 °FPartly sunny.13 mph67%30.09 "HgN/A
5:20 PM54 °FPartly sunny.13 mph72%30.09 "HgN/A
4:50 PM54 °FPartly sunny.10 mph72%30.09 "HgN/A
4:20 PM54 °FScattered clouds.12 mph67%30.09 "HgN/A
3:50 PM55 °FScattered clouds.13 mph63%30.09 "HgN/A
3:20 PM55 °FScattered clouds.14 mph63%30.12 "HgN/A
Weather by CustomWeather, © 2015

See weather overviewHow to use our weather pages